Find Starlink 31313

NORAD ID: 59088 Int'l Des: 2024-041 Owner: SPXS Country: US Constellation: starlink operational
LEOCIRCULAR

当前视图

正在加载3D地球...

About Starlink 31313

Starlink 31313 (NORAD 59088) is a starlink constellation satellite (v2 mini) launched Feb 29, 2024 by SPXS of US. It operates in LEO, CIRCULAR orbit with a mass of 730.00 kg.

即将过境

Passes for default location (London). Set your location on the main map for personalized predictions.

高度历史

Loading altitude history...

两行轨道根数

1 59088U 24041Q 26264.13398892 .00000355 00000-0 22447-4 0 9990
2 59088 43.0036 286.8152 0001627 273.8943 86.1722 15.27577991144167
Epoch: Sep 21, 2026 • Age: 12 hours

当前状态

高度 493.3 km
远地点 / 近地点 N/A
速度 7.62 km/s
星下点 -38.14°S, 5.78°W
发射日期 Feb 29, 2024
运行时间 2.5 years
类型 internet

技术详情

分类 Payload
质量 730.00 kg
干质量 700.00 kg
长度 0.30 m
跨度 29.00 m
形状 ? Box + pan
制造商 SPXS
平台类型 Starlink V2M
阶段状态 In Orbit
所有者/国家 SPXS/US

Most Searched